Springfield, IL

11:16 PM CST on December 14, 2019 (GMT -0600)
Capital

Weather History for KSPI - October, 2019

Change the Weather History Date:

Saturday, October 5, 2019

  Actual Average Record
Temperature  
Mean Temperature 60 °F 59 °F  
Max Temperature 71 °F 71 °F 89 °F (1981)
Min Temperature 48 °F 47 °F 28 °F (2004)
Degree Days  
Heating Degree Days 5 8  
Month to date heating degree days 15 35  
Since 1 July heating degree days 16 116  
Cooling Degree Days 0 1  
Month to date cooling degree days 32 7  
Year to date cooling degree days 1309 1106  
Growing Degree Days 10 (Base 50)    
Moisture  
Dew Point 51 °F    
Average Humidity 69    
Maximum Humidity 90    
Minimum Humidity 47    
Precipitation  
Precipitation 0.11 in 0.10 in 2.41 in (1955)
Month to date precipitation 0.17 0.50  
Year to date precipitation 40.72 29.05  
Snow  
Snow 0.00 in 0.00 in 0.00 in ()
Month to date snowfall 0.0 0.0  
Since 1 July snowfall 0.0 0.0  
Since 1 September snowfall 0.0 0.0  
Snow Depth 0.00 in    
Sea Level Pressure  
Sea Level Pressure 30.03 in    
Wind  
Wind Speed 7 mph (SSE)    
Max Wind Speed 15 mph    
Max Gust Speed 21 mph    
Visibility 9 miles    
Events Rain , Thunderstorm    
T = Trace of Precipitation, MM = Missing Value Source: NWS Daily Summary

Daily Weather History Graph

Daily Weather History Graph

Search for Another Location

Airport or City:

Astronomy

Oct. 05, 2019 Rise Set
Actual Time 6:58 AM CDT 6:34 PM CDT
Civil Twilight 6:31 AM CDT 7:01 PM CDT
Nautical Twilight 6:00 AM CDT 7:33 PM CDT
Astronomical Twilight 5:28 AM CDT 8:04 PM CDT
Moon 2:23 PM CDT (10/5) 11:58 PM CDT (10/5)
Length of Visible Light 12h 30m
Length of Day
11h 36m
Waxing Crescent, 50% of the Moon is Illuminated
Oct 5
Waxing Crescent
Oct 13
Full
Oct 21
Last Quarter
Oct 27
New
Nov 4
First Quarter

Hourly Weather History & Observations

Time (CDT) Temp. Dew Point Humidity Pressure Visibility Wind Dir Wind Speed Gust Speed Precip Events Conditions
12:52 AM 52.0 °F 44.1 °F 74% 30.22 in 10.0 mi East 10.4 mph - N/A   Clear
1:52 AM 51.1 °F 44.1 °F 77% 30.20 in 10.0 mi East 9.2 mph - N/A   Clear
2:52 AM 50.0 °F 44.1 °F 80% 30.18 in 10.0 mi East 8.1 mph - N/A   Clear
3:52 AM 48.9 °F 44.1 °F 83% 30.17 in 10.0 mi ENE 5.8 mph - N/A   Clear
4:52 AM 48.9 °F 44.1 °F 83% 30.16 in 10.0 mi East 6.9 mph - N/A   Clear
5:52 AM 48.9 °F 44.1 °F 83% 30.14 in 10.0 mi East 8.1 mph - N/A   Clear
6:52 AM 50.0 °F 45.0 °F 83% 30.14 in 10.0 mi ESE 5.8 mph - N/A   Clear
7:52 AM 51.1 °F 45.0 °F 80% 30.13 in 10.0 mi SE 9.2 mph - N/A   Clear
8:52 AM 55.0 °F 46.0 °F 72% 30.11 in 10.0 mi SE 13.8 mph - N/A   Clear
9:52 AM 60.1 °F 48.0 °F 64% 30.07 in 10.0 mi SE 10.4 mph - N/A   Clear
10:52 AM 64.0 °F 48.9 °F 58% 30.06 in 10.0 mi SSE 9.2 mph - N/A   Clear
11:52 AM 66.9 °F 48.9 °F 52% 30.05 in 10.0 mi South 11.5 mph - N/A   Scattered Clouds
12:52 PM 68.0 °F 48.9 °F 50% 30.01 in 10.0 mi SSE 11.5 mph - N/A   Partly Cloudy
1:52 PM 69.1 °F 48.9 °F 49% 29.98 in 10.0 mi SSE 10.4 mph - N/A   Clear
2:52 PM 71.1 °F 50.0 °F 47% 29.95 in 10.0 mi South 10.4 mph 18.4 mph N/A   Mostly Cloudy
3:52 PM 69.1 °F 50.0 °F 51% 29.97 in 10.0 mi SSW 8.1 mph - N/A   Overcast
4:18 PM 62.1 °F 55.0 °F 78% 29.97 in 2.0 mi South 10.4 mph 19.6 mph 0.05 in Rain , Thunderstorm Heavy Rain
4:31 PM 61.0 °F 55.0 °F 81% 29.98 in 2.0 mi SSW 6.9 mph - 0.10 in Rain Rain
4:42 PM 61.0 °F 55.9 °F 83% 29.97 in 7.0 mi SW 4.6 mph - 0.11 in Rain Light Rain
4:52 PM 61.0 °F 57.0 °F 87% 29.97 in 10.0 mi SSW 4.6 mph - 0.11 in   Overcast
5:52 PM 62.1 °F 57.0 °F 84% 29.91 in 10.0 mi SE 8.1 mph - N/A   Clear
6:52 PM 61.0 °F 57.0 °F 87% 29.93 in 10.0 mi SSE 3.5 mph - N/A   Partly Cloudy
7:52 PM 62.1 °F 57.0 °F 84% 29.93 in 10.0 mi Calm Calm - N/A   Mostly Cloudy
8:52 PM 63.0 °F 57.0 °F 81% 29.92 in 10.0 mi SSE 3.5 mph - N/A   Overcast
9:52 PM 62.1 °F 57.9 °F 86% 29.94 in 10.0 mi NW 3.5 mph - 0.00 in   Overcast
10:52 PM 63.0 °F 57.0 °F 81% 29.96 in 10.0 mi Calm Calm - 0.00 in   Overcast
11:24 PM 63.0 °F 57.9 °F 84% 29.96 in 10.0 mi Calm Calm - N/A   Overcast
11:43 PM 62.1 °F 59.0 °F 90% 29.96 in 10.0 mi Calm Calm - N/A   Overcast
11:52 PM 62.1 °F 57.9 °F 86% 29.96 in 10.0 mi SSW 4.6 mph - N/A   Overcast